Powrót do katalogu

THOR ABLESTAR DEB

AktywnyLEO
NORAD 223·DEBRIS·🇺🇸 United States

Wystrzelony Jun 29, 1961 z Cape Canaveral Space Force Station

Loading…

Następne Przeloty (najbliższe 24 godziny)

TLE

ŚwieżeSource: Space-Track

Epoka: Sep 13, 2026, 23:42 UTC

1 00223U 61015BK  26256.98758847 -.00000025  00000-0  40851-4 0  9997
2 00223  66.8887 106.3546 0074514 262.1905  97.0710 13.89027250303202

Śledź THOR ABLESTAR DEB w czasie rzeczywistym z AllMySat

Download on the App Store